    Observer details:
    033 Karl Schwarzschild Observatory, Tautenburg.  Observers C. Hoegner,
        B. Stecklum, U. Laux.  Measurer B. Stecklum.  1.34-m f/3 Schmidt + CCD.
    595 Farra d'Isonzo.  Observers E. Pettarin, F. Piani.  Measurer E. Pettarin.
        0.61-m f/4.0 reflector + CCD.
    658 National Research Council of Canada.  Observer D. D. Balam.  1.82-m
        Plaskett telescope + CCD.
    711 McDonald Observatory.  Observer J. G. Ries.  2.1-m reflector + CCD + focal
        reducer.
    F51 Pan-STARRS 1, Haleakala.  Observers J. Bulger, T. Lowe, A. Schultz,
        M. Willman.  Measurers K. Chambers, S. Chastel, L. Denneau, H. Flewelling,
        M. Huber, E. Magnier, Y. Ramanjooloo, R. Wainscoat, C. Waters, R. Weryk.
        1.8-m Ritchey-Chretien + CCD.
    G96 Mt. Lemmon Survey.  Observer A. R. Gibbs.  Measurers B. M. Africano,
        E. J. Christensen, D. C. Fuls, A. R. Gibbs, A. D. Grauer, J. A. Johnson,
        R. A. Kowalski, S. M. Larson, G. J. Leonard, R. L. Seaman, F. C. Shelly.
        1.5-m reflector + 10K CCD.
    H01 Magdalena Ridge Observatory, Socorro.  Observers W. H. Ryan, E. V. Ryan.
        Measurer W. H. Ryan.  2.4-m f/8.9 reflector + CCD.
    H06 iTelescope Observatory, Mayhill.  Observer H. Sato.  0.43-m f/6.8
        astrograph + CCD + f/4.5 focal reducer.
    H21 Astronomical Research Observatory, Westfield.  Observer R. Holmes.
        Measurers S. Foglia, L. Buzzi, T. Linder, R. Holmes.  0.61-m f/4.5
        astrograph + CCD.
    I52 Steward Observatory, Mt. Lemmon Station.  Observers D. C. Fuls,
        B. M. Africano, G. J. Leonard, R. A. Kowalski, E. J. Christensen.
        Measurers B. M. Africano, E. J. Christensen, D. C. Fuls, A. R. Gibbs,
        A. D. Grauer, J. A. Johnson, R. A. Kowalski, S. M. Larson, G. J. Leonard,
        R. L. Seaman, F. C. Shelly.  1.0-m reflector + CCD.
    K88 GINOP-KHK, Piszkesteto.  Observer K. Sarneczky.  0.60-m Schmidt + CCD.
    
    Orbital elements:
    2018 EF9
    Epoch 2018 Mar. 23.0 TT = JDT 2458200.5                 MPC
    M 359.98909              (2000.0)            P               Q
    n   0.00017809     Peri.   72.69054     -0.30652677     +0.94309376
    a 312.8800952      Node   172.56147     -0.42357556     -0.25641984
    e   0.9950282      Incl.   84.66215     +0.85242307     +0.21171448
    P  5530            H   18.2           G   0.15
    Residuals in seconds of arc
    180309 G96  0.3+  0.7-    180313 I52  0.6-  1.3-    180319 I52  0.5+  0.6+
    180309 G96  0.7-  0.9-    180313 I52  0.4+  0.2+    180319 I52  0.7-  0.9-
    180309 G96  0.1-  0.5+    180313 K88  0.6+  0.9-    180319 I52  0.6-  0.4-
    180309 G96  0.0   0.7-    180313 K88  0.4+  0.4-    180319 711  0.4+  0.2-
    180309 G96  1.0+  0.8+    180315 033  0.2-  0.3+    180319 711  1.3-  0.8+
    180309 G96  0.3+  0.3+    180315 033  0.0   0.4+    180319 711  0.3-  0.9+
    180309 G96  0.4+  0.9+    180315 033  0.3-  0.5+    180320 I52  1.1+  0.7+
    180309 G96  0.5+  0.8-    180315 033  0.3-  0.3+    180320 I52  0.4+  0.2-
    180309 G96  0.0   1.2-    180315 033  0.1+  0.2+    180320 I52  0.4+  1.1+
    180309 G96  0.3+  0.7+    180315 033  0.2-  0.1+    180320 I52  0.2-  0.3+
    180309 H01  0.1+  0.3+    180315 033  0.4-  0.0     180320 711  0.5+  0.3+
    180309 H01  0.1+  0.2+    180315 H06  0.4+  0.4+    180320 711  0.5+  0.1-
    180309 H01  0.0   0.3+    180315 H06  0.3+  0.0     180321 711  0.7+  0.7+
    180309 H01  0.0   0.3+    180315 H06  0.0   0.2-    180321 711  0.9+  0.7+
    180310 G96  0.7-  0.3+    180316 I52  0.5-  0.6-    180321 711  0.4+  0.8+
    180310 G96  0.3+  0.6+    180316 I52  1.1-  0.4+    180322 I52  0.9+  0.4-
    180310 G96  0.2-  0.2+    180316 I52  1.3-  0.6-    180322 I52  0.3+  0.6+
    180310 H21  0.4-  0.1+    180316 I52  0.5-  0.8-    180322 I52  0.4+  0.1-
    180310 H21  0.5-  0.1-    180316 658  0.7+  0.5+    180322 I52  0.0   0.1-
    180310 H21  0.3-  0.1-    180316 658  0.8+  0.7+    180323 595  0.4+  0.5-
    180310 F51  0.3+  0.1+    180316 658  0.7+  0.7+    180323 595  0.6+  0.0
    180310 F51  0.0   0.4-    180317 I52  0.1+  0.6-    180324 I52  1.1+  1.1-
    180313 033  0.1-  0.5+    180317 I52  0.1+  0.1-    180324 I52  0.4+  0.6-
    180313 033  0.1-  0.4+    180317 I52  0.2-  0.1-    180324 I52  0.2+  1.0-
    180313 033  0.4-  0.5+    180317 I52  0.8-  0.8-    180327 I52  1.2+  0.4+
    180313 033  0.2-  0.3+    180318 I52  0.7-  0.9-    180327 I52  0.4+  0.2+
    180313 033  0.1-  0.4+    180318 I52  0.8-  1.1-    180327 I52  0.4+  0.2+
    180313 033  0.5-  0.0     180318 I52  0.5-  0.4-    180328 I52 (4.0-  0.5+)
    180313 I52  0.4-  0.3-    180318 I52  0.4-  0.3-    180328 I52  0.6-  0.7-
    180313 I52  0.2+  0.0     180319 I52  0.3-  0.0     180328 I52  0.1-  0.2+
    
    Ephemeris:
    2018 EF9                 a,e,i = 312.88, 1.00, 85                q = 1.5556
    Date    TT    R. A. (2000) Decl.     Delta      r     Elong.  Phase     V
    2018 02 26    13 45 26.8 +26 50 58   1.1371  1.9416   131.7    22.4    21.0
    ...
    2018 03 13    13 48 52.6 +46 21 06   1.0481  1.8309   127.4    25.5    20.8
    ...
    2018 03 21    13 46 35.7 +56 40 30   1.0622  1.7774   119.4    29.2    20.9
    ...
    2018 03 27    13 41 49.9 +63 38 48   1.0964  1.7401   112.3    32.0    21.0
    2018 03 28    13 40 42.0 +64 43 26   1.1037  1.7341   111.1    32.5    21.0
    2018 03 29    13 39 27.2 +65 46 30   1.1115  1.7283   109.9    32.9    21.0
    ...
    2018 04 04    13 29 04.4 +71 30 58   1.1654  1.6947   102.7    35.1    21.1
    ...
    2018 04 12    13 03 43.0 +77 38 20   1.2514  1.6548    93.8    37.2    21.3
    ...
    2018 04 27    10 57 24.3 +84 27 44   1.4278  1.5968    79.9    38.4    21.5
    
    A. U. Tomatic                (C) Copyright 2018 MPC           M.P.E.C. 2018-F138
    

    Read MPEC 2018-F137 Read MPEC 2018-F139


    MPEC number:

    Enter an MPEC number in one of the following forms:

    • 1997-B01 (the full form)
    • J97B01 (the packed version of the full form)
    • B01 (the abbreviated form)